M I D A S
Marine Information and Data Acquisition System
Tripno 908 of the Zeeleeuw from 2005-06-02 09:22:34 to 2005-06-02 13:49:12
Back to CruiseResearch ActivitiesStationsMapUnderway DataData graphs

EquipmentUnitsComments
TimeDGPSUTC
LatitudeDGPSDM.mWGS84
LongitudeDGPSDM.mWGS84
SpeedMeteo Stationm/sRelative wind speed
DirectionMeteo StationdegRelative wind direction
TemperatureMeteo Stationdeg CelciusAir temperature
PressureMeteo StationPaAtmospheric pressure
HumidityMeteo Station%Relative humidity
Missing or incorrect values are displayed as -999
Metereological data collected by the RV Zeeleeuw from 2005-06-02 06:40:46 to 2005-06-02 13:50:30
Time Latitude Longitude Speed Direction Temperature Pressure Humidity
2005-06-02 06:41 51°13.597 2°56.109 6.3 131 13.4 101660 97
2005-06-02 06:42 51°13.597 2°56.108 4.5 131 13.4 101650 96
2005-06-02 06:43 51°13.598 2°56.108 3.4 103 13.4 101650 96
2005-06-02 06:44 51°13.599 2°56.108 6.1 131 13.4 101650 96
2005-06-02 06:45 51°13.599 2°56.108 4.1 135 13.4 101640 96
2005-06-02 06:46 51°13.599 2°56.109 2.7 137 13.4 101640 96
2005-06-02 06:47 51°13.599 2°56.109 3.4 116 13.5 101650 96
2005-06-02 06:48 51°13.599 2°56.108 5.8 121 13.4 101640 95
2005-06-02 06:49 51°13.599 2°56.108 4.1 119 13.4 101640 95
2005-06-02 06:50 51°13.599 2°56.108 3.4 136 13.4 101640 95
2005-06-02 06:51 51°13.598 2°56.108 3.6 143 13.4 101640 95
2005-06-02 06:52 51°13.599 2°56.108 5.4 168 13.5 101640 95
2005-06-02 06:53 51°13.599 2°56.108 5.2 120 13.5 101640 95
2005-06-02 06:54 51°13.599 2°56.108 2.7 131 13.5 101640 95
2005-06-02 06:55 51°13.599 2°56.108 2.2 135 13.6 101640 95
2005-06-02 06:56 51°13.599 2°56.108 3 135 13.5 101640 94
2005-06-02 06:57 51°13.599 2°56.107 3.5 122 13.6 101640 94
2005-06-02 06:58 51°13.599 2°56.108 2.2 143 13.6 101650 94
2005-06-02 06:59 51°13.598 2°56.108 2.7 150 13.6 101650 94
2005-06-02 07:00 51°13.598 2°56.108 3.5 149 13.6 101650 94
2005-06-02 07:01 51°13.598 2°56.108 4 121 13.6 101650 94
2005-06-02 07:02 51°13.598 2°56.108 2.9 137 13.6 101650 94
2005-06-02 07:03 51°13.598 2°56.108 3.5 136 13.6 101650 94
2005-06-02 07:04 51°13.599 2°56.108 2.4 130 13.7 101640 94
2005-06-02 07:05 51°13.599 2°56.108 2.1 126 13.7 101650 94
2005-06-02 07:06 51°13.6 2°56.108 2 159 13.7 101640 94
2005-06-02 07:07 51°13.6 2°56.108 1.9 131 13.7 101650 94
2005-06-02 07:08 51°13.6 2°56.109 2.5 133 13.7 101650 94
2005-06-02 07:09 51°13.599 2°56.109 4.1 123 13.7 101650 94
2005-06-02 07:10 51°13.599 2°56.109 3.7 163 13.7 101640 93
2005-06-02 07:11 51°13.599 2°56.109 2.7 133 13.7 101650 93
2005-06-02 07:12 51°13.599 2°56.108 2.1 138 13.6 101650 93
2005-06-02 07:13 51°13.599 2°56.108 3.7 154 13.7 101650 93
2005-06-02 07:14 51°13.599 2°56.107 2.9 151 13.7 101650 93
2005-06-02 07:15 51°13.599 2°56.108 2.9 140 13.7 101660 93
2005-06-02 07:16 51°13.599 2°56.108 3.6 153 13.7 101660 93
2005-06-02 07:17 51°13.599 2°56.107 4.3 150 13.7 101660 93
2005-06-02 07:18 51°13.599 2°56.107 4 106 13.7 101660 93
2005-06-02 07:19 51°13.599 2°56.108 4.3 144 13.7 101660 93
2005-06-02 07:20 51°13.599 2°56.108 3.4 142 13.7 101660 93
2005-06-02 07:21 51°13.599 2°56.108 4.2 130 13.7 101660 93
2005-06-02 07:22 51°13.599 2°56.108 4.9 118 13.7 101660 93
2005-06-02 07:23 51°13.599 2°56.108 2.9 141 13.7 101660 92
2005-06-02 07:24 51°13.599 2°56.109 2.9 147 13.7 101660 92
2005-06-02 07:25 51°13.599 2°56.109 3.5 135 13.7 101660 92
2005-06-02 07:26 51°13.598 2°56.109 5.9 154 13.7 101660 92
2005-06-02 07:27 51°13.599 2°56.109 4.9 135 13.7 101660 92
2005-06-02 07:28 51°13.598 2°56.108 5.1 151 13.7 101660 92
2005-06-02 07:29 51°13.599 2°56.108 6.2 122 13.6 101660 92
2005-06-02 07:30 51°13.598 2°56.108 6.2 149 13.6 101660 92
2005-06-02 07:31 51°13.598 2°56.108 5.5 137 13.5 101660 92
2005-06-02 07:32 51°13.598 2°56.107 7.2 153 13.4 101660 92
2005-06-02 07:33 51°13.598 2°56.108 5.9 158 13.4 101660 93
2005-06-02 07:34 51°13.598 2°56.108 3.7 143 13.4 101660 93
2005-06-02 07:35 51°13.598 2°56.107 5.3 145 13.4 101660 93
2005-06-02 07:36 51°13.598 2°56.107 5.8 119 13.4 101660 93
2005-06-02 07:37 51°13.598 2°56.108 3.8 145 13.4 101670 93
2005-06-02 07:38 51°13.599 2°56.108 5.2 153 13.4 101660 93
2005-06-02 07:39 51°13.601 2°56.109 3 131 13.4 101660 93
2005-06-02 07:40 51°13.598 2°56.107 6.4 147 13.4 101660 93
2005-06-02 07:41 51°13.597 2°56.106 4 156 13.4 101670 93
2005-06-02 07:42 51°13.597 2°56.106 3 172 13.4 101660 93
2005-06-02 07:43 51°13.596 2°56.106 4.6 150 13.4 101670 93
2005-06-02 07:44 51°13.597 2°56.106 4 164 13.4 101670 93
2005-06-02 07:45 51°13.597 2°56.107 5.4 226 13.5 101670 93
2005-06-02 07:46 51°13.598 2°56.107 5.1 153 13.5 101670 93
2005-06-02 07:47 51°13.598 2°56.108 4.9 161 13.5 101670 93
2005-06-02 07:48 51°13.599 2°56.109 7 155 13.5 101670 93
2005-06-02 07:49 51°13.599 2°56.109 6.6 147 13.5 101670 93
2005-06-02 07:50 51°13.598 2°56.109 3.9 159 13.5 101670 93
2005-06-02 07:51 51°13.599 2°56.109 3.9 163 13.5 101670 93
2005-06-02 07:52 51°13.599 2°56.108 5.6 144 13.5 101670 93
2005-06-02 07:53 51°13.599 2°56.109 5.1 140 13.5 101670 93
2005-06-02 07:54 51°13.599 2°56.109 5.4 129 13.5 101670 93
2005-06-02 07:55 51°13.598 2°56.11 4.9 152 13.5 101670 93
2005-06-02 07:56 51°13.599 2°56.11 2.6 110 13.6 101670 93
2005-06-02 07:57 51°13.598 2°56.108 5.9 166 13.6 101670 93
2005-06-02 07:58 51°13.598 2°56.107 3.9 146 13.6 101670 93
2005-06-02 07:59 51°13.598 2°56.108 5.7 149 13.6 101670 93
2005-06-02 08:00 51°13.598 2°56.108 3.6 84 13.6 101660 93
2005-06-02 08:01 51°13.598 2°56.109 4.7 145 13.7 101670 93
2005-06-02 08:02 51°13.597 2°56.108 3.6 146 13.7 101660 93
2005-06-02 08:03 51°13.597 2°56.108 2.8 125 13.7 101660 93
2005-06-02 08:04 51°13.598 2°56.11 5.4 140 13.8 101660 94
2005-06-02 08:05 51°13.598 2°56.108 3.7 146 13.8 101660 93
2005-06-02 08:06 51°13.598 2°56.108 2.8 138 13.7 101660 93
2005-06-02 08:07 51°13.597 2°56.108 3.4 135 13.8 101660 94
2005-06-02 08:08 51°13.598 2°56.108 3.8 142 13.8 101660 93
2005-06-02 08:09 51°13.597 2°56.108 2.7 101 13.7 101660 93
2005-06-02 08:10 51°13.598 2°56.108 2.9 149 13.8 101670 94
2005-06-02 08:11 51°13.597 2°56.108 3.2 147 13.8 101670 93
2005-06-02 08:12 51°13.598 2°56.108 5.2 134 13.8 101670 93
2005-06-02 08:13 51°13.598 2°56.108 4.4 152 13.7 101670 93
2005-06-02 08:14 51°13.598 2°56.108 4.3 147 13.7 101660 93
2005-06-02 08:15 51°13.599 2°56.108 4.6 126 13.7 101660 93
2005-06-02 08:16 51°13.599 2°56.109 4.3 166 13.6 101670 93
2005-06-02 08:17 51°13.598 2°56.108 6.6 139 13.6 101670 93
2005-06-02 08:18 51°13.598 2°56.107 5 132 13.6 101660 93
2005-06-02 08:19 51°13.597 2°56.107 3 125 13.6 101670 93
2005-06-02 08:20 51°13.598 2°56.107 5.2 149 13.6 101670 93
2005-06-02 08:21 51°13.598 2°56.108 3.8 151 13.6 101670 93
2005-06-02 08:22 51°13.598 2°56.108 4.2 172 13.5 101660 93
2005-06-02 08:23 51°13.598 2°56.107 4.6 140 13.6 101660 93
2005-06-02 08:24 51°13.598 2°56.107 4.3 135 13.6 101660 93
2005-06-02 08:25 51°13.598 2°56.107 4.6 139 13.6 101660 93
2005-06-02 08:26 51°13.597 2°56.107 4.7 121 13.6 101660 93
2005-06-02 08:27 51°13.597 2°56.108 5.2 150 13.6 101660 93
2005-06-02 08:28 51°13.597 2°56.109 3.2 132 13.6 101650 93
2005-06-02 08:29 51°13.598 2°56.108 3.5 157 13.6 101650 93
2005-06-02 08:30 51°13.599 2°56.108 3.4 152 13.6 101660 93
2005-06-02 08:31 51°13.598 2°56.109 2.3 117 13.6 101650 93
2005-06-02 08:32 51°13.598 2°56.108 2.5 96 13.7 101660 94
2005-06-02 08:33 51°13.598 2°56.108 4.7 95 13.7 101650 93
2005-06-02 08:34 51°13.599 2°56.108 4.3 126 13.7 101650 93
2005-06-02 08:35 51°13.599 2°56.108 5.3 127 13.7 101660 93
2005-06-02 08:36 51°13.599 2°56.107 4.4 110 13.6 101650 93
2005-06-02 08:37 51°13.599 2°56.107 3.9 131 13.6 101660 93
2005-06-02 08:38 51°13.599 2°56.108 3.6 102 13.6 101650 93
2005-06-02 08:39 51°13.599 2°56.108 3.2 110 13.6 101650 93
2005-06-02 08:40 51°13.599 2°56.108 4.5 124 13.6 101650 93
2005-06-02 08:41 51°13.599 2°56.107 3.8 115 13.6 101650 93
2005-06-02 08:42 51°13.599 2°56.108 3.9 122 13.7 101650 93
2005-06-02 08:43 51°13.599 2°56.108 3.8 107 13.7 101650 93
2005-06-02 08:44 51°13.599 2°56.108 3.9 99 13.7 101640 93
2005-06-02 08:45 51°13.599 2°56.108 4.5 126 13.7 101650 93
2005-06-02 08:46 51°13.599 2°56.108 3.9 142 13.8 101650 93
2005-06-02 08:47 51°13.597 2°56.108 3.1 106 13.8 101650 93
2005-06-02 08:48 51°13.598 2°56.108 3 129 13.8 101650 92
2005-06-02 08:49 51°13.598 2°56.108 3.2 113 13.8 101650 93
2005-06-02 08:50 51°13.597 2°56.108 4.3 148 13.8 101660 93
2005-06-02 08:51 51°13.598 2°56.108 4.6 101 13.8 101650 93
2005-06-02 08:52 51°13.598 2°56.108 5.1 226 13.9 101650 92
2005-06-02 08:53 51°13.598 2°56.108 5.6 122 13.9 101640 92
2005-06-02 08:54 51°13.598 2°56.108 3.5 105 13.8 101650 92
2005-06-02 08:55 51°13.598 2°56.108 4.8 124 13.8 101650 92
2005-06-02 08:56 51°13.598 2°56.108 4.4 118 13.8 101650 92
2005-06-02 08:57 51°13.598 2°56.108 3.5 121 13.9 101650 92
2005-06-02 08:58 51°13.598 2°56.108 5.8 108 13.9 101650 92
2005-06-02 08:59 51°13.598 2°56.108 5.3 92 13.9 101650 92
2005-06-02 09:00 51°13.598 2°56.108 5.4 133 13.9 101640 92
2005-06-02 09:01 51°13.598 2°56.108 4.7 129 13.9 101640 92
2005-06-02 09:02 51°13.598 2°56.108 3 45 13.9 101640 92
2005-06-02 09:03 51°13.598 2°56.108 3.6 97 13.9 101640 92
2005-06-02 09:04 51°13.598 2°56.107 4.2 119 13.9 101640 92
2005-06-02 09:05 51°13.598 2°56.107 3.6 120 13.9 101640 92
2005-06-02 09:06 51°13.598 2°56.107 3.3 95 14 101640 92
2005-06-02 09:07 51°13.598 2°56.108 5.6 95 14 101640 92
2005-06-02 09:08 51°13.598 2°56.108 5.2 96 14 101630 92
2005-06-02 09:09 51°13.598 2°56.108 5.5 95 14 101630 92
2005-06-02 09:10 51°13.598 2°56.108 3.8 102 14 101630 92
2005-06-02 09:11 51°13.598 2°56.108 3.8 107 14 101630 92
2005-06-02 09:12 51°13.598 2°56.107 5.3 132 14 101630 92
2005-06-02 09:13 51°13.598 2°56.108 5.1 87 14 101630 92
2005-06-02 09:14 51°13.598 2°56.108 5.6 100 14 101620 92
2005-06-02 09:15 51°13.598 2°56.108 6.3 84 14.1 101620 92
2005-06-02 09:16 51°13.598 2°56.108 4.3 95 14.1 101620 92
2005-06-02 09:17 51°13.598 2°56.108 3.2 74 14.1 101620 92
2005-06-02 09:18 51°13.598 2°56.108 5.8 79 14.1 101620 92
2005-06-02 09:19 51°13.598 2°56.107 5.7 91 14.2 101620 92
2005-06-02 09:20 51°13.598 2°56.108 4.8 109 14.3 101620 92
2005-06-02 09:21 51°13.598 2°56.108 3.3 113 14.3 101620 92
2005-06-02 09:22 51°13.598 2°56.109 5.8 132 14.4 101620 92
2005-06-02 09:23 51°13.598 2°56.109 6.2 122 14.4 101620 91
2005-06-02 09:24 51°13.597 2°56.103 5.1 147 14.5 101620 90
2005-06-02 09:25 51°13.604 2°56.078 6.1 88 14.5 101610 91
2005-06-02 09:26 51°13.57 2°56.168 4.4 60 14.5 101620 90
2005-06-02 09:27 51°13.529 2°56.246 3.5 84 14.6 101610 90
2005-06-02 09:28 51°13.535 2°56.25 4 34 14.7 101620 89
2005-06-02 09:29 51°13.526 2°56.255 3.6 358 14.7 101610 89
2005-06-02 09:30 51°13.521 2°56.231 4.3 10 14.8 101620 88
2005-06-02 09:31 51°13.538 2°56.172 3.6 292 14.9 101600 88
2005-06-02 09:32 51°13.573 2°56.095 3.7 284 15 101610 88
2005-06-02 09:33 51°13.613 2°56.01 2.9 314 15 101610 88
2005-06-02 09:34 51°13.653 2°55.921 6.1 332 15.1 101620 88
2005-06-02 09:35 51°13.692 2°55.836 6.7 310 15.2 101600 87
2005-06-02 09:36 51°13.739 2°55.74 7.6 289 15.2 101610 86
2005-06-02 09:37 51°13.842 2°55.63 4.9 291 15.2 101610 86
2005-06-02 09:38 51°13.965 2°55.54 6.4 230 15.2 101610 86
2005-06-02 09:39 51°14.085 2°55.447 4.8 321 15.2 101610 85
2005-06-02 09:40 51°14.22 2°55.316 6.4 313 15.3 101610 85
2005-06-02 09:41 51°14.348 2°55.11 9 334 15.3 101590 85
2005-06-02 09:42 51°14.499 2°55.011 3.7 250 15.2 101590 85
2005-06-02 09:43 51°14.595 2°55.043 5 228 15.1 101610 85
2005-06-02 09:44 51°14.661 2°55.069 5.4 238 15 101620 86
2005-06-02 09:45 51°14.715 2°55.1 5.6 233 15 101610 86
2005-06-02 09:46 51°14.769 2°55.125 4.8 250 14.9 101610 87
2005-06-02 09:47 51°14.864 2°55.121 6.9 300 15 101600 88
2005-06-02 09:48 51°14.997 2°54.974 9.7 329 15 101590 88
2005-06-02 09:49 51°15.149 2°54.762 11 329 14.9 101580 88
2005-06-02 09:50 51°15.312 2°54.539 10.4 326 14.8 101580 88
2005-06-02 09:51 51°15.483 2°54.325 11.2 324 14.6 101580 89
2005-06-02 09:52 51°15.655 2°54.111 11 324 14.5 101580 89
2005-06-02 09:53 51°15.831 2°53.901 10.8 322 14.4 101580 90
2005-06-02 09:54 51°16.021 2°53.722 9 332 14.4 101580 90
2005-06-02 09:55 51°16.213 2°53.544 9.8 326 14.3 101580 91
2005-06-02 09:56 51°16.407 2°53.373 9.7 323 14.4 101590 91
2005-06-02 09:57 51°16.61 2°53.226 9.8 317 14.3 101590 92
2005-06-02 09:58 51°16.809 2°53.075 10.1 320 14.3 101600 92
2005-06-02 09:59 51°17.007 2°52.922 11.5 322 14.3 101600 92
2005-06-02 10:00 51°17.161 2°52.684 13.3 329 14.3 101590 92
2005-06-02 10:01 51°17.295 2°52.416 13 331 14.3 101590 92
2005-06-02 10:02 51°17.437 2°52.157 12.1 333 14.2 101580 93
2005-06-02 10:03 51°17.591 2°51.912 12.3 329 14.2 101580 93
2005-06-02 10:04 51°17.744 2°51.666 14.6 329 14.1 101600 93
2005-06-02 10:05 51°17.894 2°51.413 13.5 329 14.1 101590 93
2005-06-02 10:06 51°18.047 2°51.166 14.4 330 14 101590 93
2005-06-02 10:07 51°18.199 2°50.918 12.6 323 14 101590 93
2005-06-02 10:08 51°18.35 2°50.673 12.9 331 13.9 101570 94
2005-06-02 10:09 51°18.501 2°50.424 13.3 325 13.9 101560 94
2005-06-02 10:10 51°18.654 2°50.176 12.8 324 13.8 101580 94
2005-06-02 10:11 51°18.805 2°49.926 13.6 323 13.8 101580 94
2005-06-02 10:12 51°18.957 2°49.678 12.9 325 13.9 101590 94
2005-06-02 10:13 51°19.107 2°49.429 13.1 322 13.8 101590 94
2005-06-02 10:14 51°19.262 2°49.184 13.7 321 13.9 101590 95
2005-06-02 10:15 51°19.42 2°48.943 12.4 320 13.8 101580 95
2005-06-02 10:16 51°19.575 2°48.699 14.3 320 13.9 101570 95
2005-06-02 10:17 51°19.729 2°48.457 13 323 13.8 101580 94
2005-06-02 10:18 51°19.885 2°48.216 15.1 318 13.8 101570 95
2005-06-02 10:19 51°20.04 2°47.974 12.7 327 13.8 101580 95
2005-06-02 10:20 51°20.192 2°47.727 14.1 316 13.8 101560 95
2005-06-02 10:21 51°20.345 2°47.482 14.4 313 13.7 101550 95
2005-06-02 10:22 51°20.5 2°47.235 15 315 13.7 101570 95
2005-06-02 10:23 51°20.655 2°46.991 13.7 317 13.7 101570 95
2005-06-02 10:24 51°20.822 2°46.772 12.5 227 13.7 101570 95
2005-06-02 10:25 51°21 2°46.573 12.8 41 13.7 101580 95
2005-06-02 10:26 51°21.189 2°46.391 10.9 319 13.7 101570 95
2005-06-02 10:27 51°21.386 2°46.225 13.6 41 13.7 101580 95
2005-06-02 10:28 51°21.582 2°46.077 12.2 311 13.7 101600 95
2005-06-02 10:29 51°21.767 2°45.969 9 294 13.7 101590 95
2005-06-02 10:30 51°21.899 2°45.913 10.3 285 13.7 101610 95
2005-06-02 10:31 51°22.008 2°45.887 10.6 275 13.7 101610 95
2005-06-02 10:32 51°22.095 2°45.874 4.4 275 13.7 101610 95
2005-06-02 10:33 51°22.242 2°45.78 12.4 308 13.7 101600 95
2005-06-02 10:34 51°22.42 2°45.574 13.3 317 13.7 101580 95
2005-06-02 10:35 51°22.565 2°45.316 14.7 317 13.7 101570 95
2005-06-02 10:36 51°22.705 2°45.051 14.4 320 13.7 101570 95
2005-06-02 10:37 51°22.848 2°44.79 12.2 324 13.6 101570 95
2005-06-02 10:38 51°22.994 2°44.534 13.9 42 13.6 101560 95
2005-06-02 10:39 51°23.142 2°44.28 14.2 321 13.6 101570 95
2005-06-02 10:40 51°23.29 2°44.029 14.1 324 13.6 101560 95
2005-06-02 10:41 51°23.438 2°43.775 13.3 317 13.5 101560 95
2005-06-02 10:42 51°23.587 2°43.523 13.5 319 13.5 101570 95
2005-06-02 10:43 51°23.71 2°43.247 14.1 331 13.5 101560 95
2005-06-02 10:44 51°23.818 2°42.959 13.7 326 13.4 101560 96
2005-06-02 10:45 51°23.924 2°42.665 15.5 333 13.4 101560 96
2005-06-02 10:46 51°24.025 2°42.367 15.8 328 13.3 101580 96
2005-06-02 10:47 51°24.124 2°42.07 17.7 329 13.3 101560 96
2005-06-02 10:48 51°24.223 2°41.768 15.6 331 13.3 101560 96
2005-06-02 10:49 51°24.325 2°41.471 14.2 332 13.3 101560 96
2005-06-02 10:50 51°24.422 2°41.166 15.4 333 13.2 101550 97
2005-06-02 10:51 51°24.512 2°40.861 15.6 337 13.2 101560 97
2005-06-02 10:52 51°24.594 2°40.553 15.1 335 13.2 101540 97
2005-06-02 10:53 51°24.675 2°40.238 16.1 331 13.1 101550 97
2005-06-02 10:54 51°24.751 2°39.924 16.1 332 13.1 101550 97
2005-06-02 10:55 51°24.823 2°39.611 15 334 13.1 101520 97
2005-06-02 10:56 51°24.888 2°39.291 15.3 330 13 101550 98
2005-06-02 10:57 51°24.952 2°38.972 14.9 335 13 101540 98
2005-06-02 10:58 51°25.019 2°38.65 16.4 332 13 101550 98
2005-06-02 10:59 51°25.088 2°38.327 15.7 334 13 101550 98
2005-06-02 11:00 51°25.159 2°38.011 16 333 13 101550 98
2005-06-02 11:01 51°25.224 2°37.695 15.2 329 13 101570 98
2005-06-02 11:02 51°25.291 2°37.383 14 335 13 101570 98
2005-06-02 11:03 51°25.355 2°37.108 14.6 329 13 101560 98
2005-06-02 11:04 51°25.416 2°36.833 14.5 331 12.9 101560 98
2005-06-02 11:05 51°25.478 2°36.557 13.5 334 12.9 101580 98
2005-06-02 11:06 51°25.529 2°36.309 12 332 12.9 101570 99
2005-06-02 11:07 51°25.518 2°36.232 12 23 12.9 101590 99
2005-06-02 11:08 51°25.495 2°36.256 9.4 82 12.9 101590 99
2005-06-02 11:09 51°25.5 2°36.301 7.9 90 12.8 101600 99
2005-06-02 11:10 51°25.519 2°36.34 9.6 86 12.8 101600 99
2005-06-02 11:11 51°25.518 2°36.387 9.5 56 12.8 101610 99
2005-06-02 11:12 51°25.491 2°36.374 9.4 346 12.8 101590 99
2005-06-02 11:13 51°25.504 2°36.347 7.9 313 12.9 101600 99
2005-06-02 11:14 51°25.528 2°36.353 7.6 303 12.9 101600 99
2005-06-02 11:15 51°25.554 2°36.374 7.9 291 12.9 101600 99
2005-06-02 11:16 51°25.593 2°36.367 7.9 282 12.9 101600 99
2005-06-02 11:17 51°25.628 2°36.367 8.3 291 13 101610 99
2005-06-02 11:18 51°25.661 2°36.354 9.6 313 13 101610 99
2005-06-02 11:19 51°25.707 2°36.284 9 297 13 101590 99
2005-06-02 11:20 51°25.744 2°36.26 8.9 294 13 101610 99
2005-06-02 11:21 51°25.767 2°36.276 8.5 292 13 101590 99
2005-06-02 11:22 51°25.791 2°36.303 8 286 13 101600 99
2005-06-02 11:23 51°25.811 2°36.334 9 265 13.1 101590 99
2005-06-02 11:24 51°25.842 2°36.349 9.7 297 13.1 101610 99
2005-06-02 11:25 51°25.857 2°36.231 11.2 360 13.1 101580 99
2005-06-02 11:26 51°25.767 2°36.145 12.1 23 13 101580 99
2005-06-02 11:27 51°25.693 2°36.112 11.2 35 13 101590 99
2005-06-02 11:28 51°25.663 2°36.109 10.1 30 13 101590 99
2005-06-02 11:29 51°25.654 2°36.124 10 38 13 101590 99
2005-06-02 11:30 51°25.648 2°36.142 9.1 31 13 101600 99
2005-06-02 11:31 51°25.633 2°36.146 8.8 23 13 101590 99
2005-06-02 11:32 51°25.612 2°36.139 9.8 20 13 101590 99
2005-06-02 11:33 51°25.589 2°36.133 8.8 26 13 101580 99
2005-06-02 11:34 51°25.573 2°36.134 9.3 23 13 101590 99
2005-06-02 11:35 51°25.556 2°36.143 8.7 31 13.1 101580 99
2005-06-02 11:36 51°25.522 2°36.131 10.9 355 13 101570 98
2005-06-02 11:37 51°25.535 2°36.079 10.5 302 13.1 101580 99
2005-06-02 11:38 51°25.563 2°36.083 9.7 292 13.1 101590 99
2005-06-02 11:39 51°25.589 2°36.098 7.9 281 13.1 101580 99
2005-06-02 11:40 51°25.613 2°36.124 9.7 267 13.2 101590 98
2005-06-02 11:41 51°25.642 2°36.141 8.3 288 13.2 101590 98
2005-06-02 11:42 51°25.674 2°36.081 10.6 339 13.2 101580 98
2005-06-02 11:43 51°25.667 2°36.01 9.6 358 13.2 101580 98
2005-06-02 11:44 51°25.656 2°35.984 9.5 23 13.3 101580 98
2005-06-02 11:45 51°25.615 2°35.992 10.1 51 13.2 101590 98
2005-06-02 11:46 51°25.572 2°36.061 9.4 84 13.1 101580 98
2005-06-02 11:47 51°25.553 2°36.119 9.1 88 13 101580 98
2005-06-02 11:48 51°25.526 2°36.173 8.9 71 13 101600 98
2005-06-02 11:49 51°25.5 2°36.225 9.6 107 13 101580 98
2005-06-02 11:50 51°25.495 2°36.291 9 117 13 101600 98
2005-06-02 11:51 51°25.508 2°36.323 9.4 108 13 101600 98
2005-06-02 11:52 51°25.521 2°36.354 8.2 96 13 101590 98
2005-06-02 11:53 51°25.536 2°36.386 8.2 101 13.1 101590 98
2005-06-02 11:54 51°25.55 2°36.416 8.7 89 13.1 101590 98
2005-06-02 11:55 51°25.563 2°36.447 8.6 104 13.1 101590 98
2005-06-02 11:56 51°25.577 2°36.48 8.3 103 13.1 101590 98
2005-06-02 11:57 51°25.558 2°36.521 10.3 48 13 101600 98
2005-06-02 11:58 51°25.514 2°36.509 11.3 26 13 101570 98
2005-06-02 11:59 51°25.484 2°36.471 10.2 4 13 101560 98
2005-06-02 12:00 51°25.48 2°36.412 9.6 339 13.1 101570 98
2005-06-02 12:01 51°25.5 2°36.376 9 319 13.1 101560 98
2005-06-02 12:02 51°25.514 2°36.338 8.6 4 13.1 101570 98
2005-06-02 12:03 51°25.522 2°36.333 7.7 9 13.2 101580 98
2005-06-02 12:04 51°25.536 2°36.341 7.5 348 13.2 101580 98
2005-06-02 12:05 51°25.548 2°36.34 9.2 6 13.2 101580 98
2005-06-02 12:06 51°25.539 2°36.323 9.6 24 13.2 101570 98
2005-06-02 12:07 51°25.518 2°36.316 9.7 25 13.2 101570 97
2005-06-02 12:08 51°25.507 2°36.325 8.9 51 13.1 101570 97
2005-06-02 12:09 51°25.512 2°36.348 8.9 56 13 101580 98
2005-06-02 12:10 51°25.523 2°36.377 9.3 79 13 101580 98
2005-06-02 12:11 51°25.524 2°36.411 8.5 62 13 101590 98
2005-06-02 12:12 51°25.46 2°36.414 12.1 43 13 101570 98
2005-06-02 12:13 51°25.334 2°36.547 8.7 79 13 101570 98
2005-06-02 12:14 51°25.211 2°36.829 10.7 66 13 101570 98
2005-06-02 12:15 51°25.086 2°37.119 7.9 66 13 101580 98
2005-06-02 12:16 51°24.967 2°37.416 7.2 76 13 101590 98
2005-06-02 12:17 51°24.858 2°37.725 9 77 13 101590 98
2005-06-02 12:18 51°24.753 2°38.031 8.1 75 13.1 101580 98
2005-06-02 12:19 51°24.625 2°38.32 8.4 69 13.1 101580 98
2005-06-02 12:20 51°24.496 2°38.606 8.5 73 13.1 101580 98
2005-06-02 12:21 51°24.37 2°38.895 11.2 81 13.1 101590 98
2005-06-02 12:22 51°24.244 2°39.191 8.3 77 13.1 101570 98
2005-06-02 12:23 51°24.119 2°39.492 8.8 81 13.1 101570 98
2005-06-02 12:24 51°23.998 2°39.787 9.4 81 13.1 101570 98
2005-06-02 12:25 51°23.889 2°40.092 6.4 82 13.1 101570 98
2005-06-02 12:26 51°23.784 2°40.401 8.7 96 13.2 101570 98
2005-06-02 12:27 51°23.677 2°40.71 9.6 87 13.2 101580 98
2005-06-02 12:28 51°23.567 2°41.019 8.3 82 13.3 101570 98
2005-06-02 12:29 51°23.464 2°41.337 7.4 93 13.3 101590 97
2005-06-02 12:30 51°23.391 2°41.677 7.4 86 13.4 101590 97
2005-06-02 12:31 51°23.326 2°42.018 7.5 96 13.4 101590 97
2005-06-02 12:32 51°23.272 2°42.274 7.3 119 13.4 101590 97
2005-06-02 12:33 51°23.221 2°42.517 7 109 13.5 101590 97
2005-06-02 12:34 51°23.161 2°42.75 8.2 107 13.5 101590 96
2005-06-02 12:35 51°23.078 2°42.99 8.8 93 13.6 101590 96
2005-06-02 12:36 51°22.969 2°43.238 9.6 96 13.6 101580 96
2005-06-02 12:37 51°22.879 2°43.378 10.5 82 13.6 101590 96
2005-06-02 12:38 51°22.763 2°43.426 12.3 65 13.6 101560 95
2005-06-02 12:39 51°22.63 2°43.508 9.6 83 13.6 101570 95
2005-06-02 12:40 51°22.529 2°43.684 7.2 115 13.5 101570 95
2005-06-02 12:41 51°22.498 2°43.852 8.4 139 13.6 101590 95
2005-06-02 12:42 51°22.503 2°43.987 6.4 167 13.6 101590 95
2005-06-02 12:43 51°22.492 2°44.126 6.8 122 13.6 101580 95
2005-06-02 12:44 51°22.424 2°44.312 8.5 103 13.6 101580 95
2005-06-02 12:45 51°22.315 2°44.594 8.4 86 13.6 101580 94
2005-06-02 12:46 51°22.183 2°44.87 9.4 89 13.6 101580 94
2005-06-02 12:47 51°22.032 2°45.12 8.6 69 13.6 101570 94
2005-06-02 12:48 51°21.87 2°45.357 8.3 73 13.6 101570 94
2005-06-02 12:49 51°21.711 2°45.596 9 84 13.6 101570 94
2005-06-02 12:50 51°21.554 2°45.843 10.9 83 13.6 101570 95
2005-06-02 12:51 51°21.395 2°46.087 9.7 80 13.6 101570 95
2005-06-02 12:52 51°21.237 2°46.333 8.6 78 13.6 101570 95
2005-06-02 12:53 51°21.078 2°46.572 10.2 81 13.6 101560 95
2005-06-02 12:54 51°20.922 2°46.812 8.5 77 13.6 101560 95
2005-06-02 12:55 51°20.76 2°47.038 7.3 75 13.6 101570 95
2005-06-02 12:56 51°20.598 2°47.261 7.7 76 13.6 101560 95
2005-06-02 12:57 51°20.433 2°47.486 8 78 13.7 101560 95
2005-06-02 12:58 51°20.267 2°47.711 8.9 92 13.7 101560 95
2005-06-02 12:59 51°20.138 2°47.99 8.4 84 13.7 101570 95
2005-06-02 13:00 51°20.004 2°48.273 6.6 80 13.7 101570 95
2005-06-02 13:01 51°19.874 2°48.551 7.5 88 13.7 101570 95
2005-06-02 13:02 51°19.746 2°48.822 8.3 95 13.8 101570 95
2005-06-02 13:03 51°19.618 2°49.089 8.8 93 13.8 101570 95
2005-06-02 13:04 51°19.487 2°49.357 8.2 91 13.8 101580 95
2005-06-02 13:05 51°19.355 2°49.625 8.2 94 13.9 101570 95
2005-06-02 13:06 51°19.223 2°49.891 7.4 97 13.9 101570 95
2005-06-02 13:07 51°19.091 2°50.159 8 95 13.9 101570 95
2005-06-02 13:08 51°18.956 2°50.429 6.7 93 14 101570 95
2005-06-02 13:09 51°18.815 2°50.702 7 84 13.9 101570 95
2005-06-02 13:10 51°18.638 2°50.91 9.6 66 14 101570 95
2005-06-02 13:11 51°18.425 2°51.014 10 56 14 101560 95
2005-06-02 13:12 51°18.21 2°51.113 11 67 14 101550 95
2005-06-02 13:13 51°18.002 2°51.215 11 67 14 101550 95
2005-06-02 13:14 51°17.793 2°51.318 10.4 68 14 101550 95
2005-06-02 13:15 51°17.586 2°51.419 9.6 69 14 101550 95
2005-06-02 13:16 51°17.391 2°51.521 8.2 80 14 101560 95
2005-06-02 13:17 51°17.309 2°51.613 7.3 135 14.1 101570 95
2005-06-02 13:18 51°17.284 2°51.639 7.4 114 14.1 101570 95
2005-06-02 13:19 51°17.265 2°51.645 8.3 103 14.1 101570 94
2005-06-02 13:20 51°17.179 2°51.691 8.9 82 14.2 101570 94
2005-06-02 13:21 51°16.997 2°51.847 8.8 66 14.2 101570 94
2005-06-02 13:22 51°16.806 2°52.01 8 63 14.2 101560 94
2005-06-02 13:23 51°16.611 2°52.166 7.4 74 14.2 101570 94
2005-06-02 13:24 51°16.412 2°52.315 7.4 66 14.2 101570 94
2005-06-02 13:25 51°16.212 2°52.465 7.9 58 14.3 101570 94
2005-06-02 13:26 51°16.014 2°52.612 7.8 69 14.3 101570 94
2005-06-02 13:27 51°15.814 2°52.755 7.4 75 14.3 101570 94
2005-06-02 13:28 51°15.633 2°52.944 5.9 74 14.3 101580 94
2005-06-02 13:29 51°15.453 2°53.139 6.9 67 14.4 101580 94
2005-06-02 13:30 51°15.271 2°53.329 8 64 14.4 101580 94
2005-06-02 13:31 51°15.096 2°53.532 6.7 71 14.4 101580 94
2005-06-02 13:32 51°14.929 2°53.749 6.6 65 14.5 101580 94
2005-06-02 13:33 51°14.769 2°53.982 5.1 69 14.5 101580 94
2005-06-02 13:34 51°14.643 2°54.255 4 70 14.5 101580 94
2005-06-02 13:35 51°14.561 2°54.548 4.6 67 14.6 101590 94
2005-06-02 13:36 51°14.462 2°54.804 4 61 14.6 101590 94
2005-06-02 13:37 51°14.366 2°55.057 4.8 72 14.6 101590 94
2005-06-02 13:38 51°14.282 2°55.223 3.8 91 14.6 101590 94
2005-06-02 13:39 51°14.214 2°55.324 4 103 14.7 101590 94
2005-06-02 13:40 51°14.122 2°55.415 1.7 50 14.8 101590 94
2005-06-02 13:41 51°14.016 2°55.498 3.8 57 15 101590 94
2005-06-02 13:42 51°13.93 2°55.558 4.8 110 15.1 101580 93
2005-06-02 13:43 51°13.866 2°55.605 0.2 70 15.2 101580 91
2005-06-02 13:44 51°13.814 2°55.645 1.5 5 15.5 101580 91
2005-06-02 13:45 51°13.759 2°55.715 0.4 91 15.7 101580 89
2005-06-02 13:46 51°13.702 2°55.823 4.8 105 15.8 101580 89
2005-06-02 13:47 51°13.66 2°55.929 2.9 142 16 101580 86
2005-06-02 13:48 51°13.627 2°56.013 2.9 118 16.2 101580 84
2005-06-02 13:49 51°13.604 2°56.087 3.7 147 16.4 101580 83